User: anonymous   Login
Location: *
(50.3440°N, 18.6237°E)
Time: 10:48:11
(UTC+00:00)
Language:

Meteor 1-11 Rocket - Orbit

View from above orbital plane
View from above orbital plane
View from above satellite
View from above satellite

Ground track
Ground track

The orbit data is extracted from the following two-line orbital elements,

1 05918U 72022B   21063.58723404 -.00000031  00000-0 -26343-4 0  9999
2 05918  81.2346  93.7170 0059481 115.0475 245.6885 14.05879253508315
Epoch (UTC): 04 March 2021 14:05:37
Eccentricity: 0.0059481
inclination: 81.2346°
perigee height: 830 km
apogee height: 916 km
right ascension of ascending node: 93.7170°
argument of perigee: 115.0475°
revolutions per day: 14.05879253
mean anomaly at epoch: 245.6885°
orbit number at epoch: 50831

The dashed part of the orbit path shows where the satellite is in the earth's shadow,  

DLR